Hors Challenge

Le Trail Séries - Dinant 20.00 km

du 6 mars au 14 mars 2021

Le Classement original se trouve sur : http://www.chronorace.be
 
LE TRAIL SÉRIES - DINANT
DISTANCE : 20.00 km
du 6 mars au 14 mars 2021
 
Place Dos NOM Catégorie Pl/cat temps temps/km Vitesse
1 462 DESCAMPS FLORIAN SH 1 01:20:19 04:01 14.94
2 586 ROUCHET FRANÇOIS SH 2 01:23:19 04:10 14.40
3 614 GÉROMBOUX ARNAUD SH 3 01:24:03 04:12 14.28
4 945 DEROO LENNART SH 4 01:24:28 04:13 14.21
5 48 CHARLIER JULIEN V1 1 01:25:52 04:18 13.97
6 430 HAQUENNE ROMAIN SH 5 01:28:07 04:24 13.62
7 478 PONCIN RENAUD SH 6 01:28:08 04:24 13.61
8 534 BERTI ROMAIN SH 7 01:28:35 04:26 13.55
9 53 BRUGGEMAN PIETER-JAN SH 8 01:29:24 04:28 13.42
10 68 BROSSARD ÉRIC V2 1 01:29:26 04:28 13.42
11 728 CHABOTEAUX JÉRÔME SH 9 01:29:36 04:29 13.39
12 321 TAMIGNEAUX CEDRIC SH 10 01:31:18 04:34 13.14
13 660 MERCENIER ADRIEN SH 11 01:32:28 04:37 12.98
14 578 TRIAILLE THIBAULT SH 12 01:32:29 04:37 12.97
15 559 CASSE MATHIEU V1 2 01:34:54 04:45 12.64
16 482 VANDERVORST EDWIN SH 13 01:35:17 04:46 12.59
17 350 DUCARME RAPHAEL SH 14 01:36:24 04:49 12.45
18 247 SALMIN LOÏC SH 15 01:36:24 04:49 12.45
19 722 MORTIER THOMAS SH 16 01:37:50 04:54 12.27
20 713 CARNAILLE ROMAIN SH 17 01:37:52 04:54 12.26
21 426 LANNERS PATRICK V1 3 01:38:44 04:56 12.15
22 23 DELPERDANGE MICHAEL SH 18 01:39:22 04:58 12.08
23 349 SMEESTERS HUGO SH 19 01:39:43 04:59 12.03
24 741 BOONEN LAURENS SH 20 01:41:47 05:05 11.79
25 829 MINET DENIS V2 2 01:42:32 05:08 11.70
26 923 DEBROUX ROMAIN SH 21 01:42:41 05:08 11.69
27 655 DEGREZ FRANÇOIS SH 22 01:42:51 05:09 11.67
28 863 CHARLOT MICHAËL V2 3 01:43:18 05:10 11.62
29 162 LAMBEAU ANTOINE SH 23 01:43:49 05:11 11.56
30 842 NEWMAN MATTHEW V2 4 01:44:14 05:13 11.51
31 1040 HASTIR FABRICE V2 5 01:44:22 05:13 11.50
32 266 VIS GASPARD SH 24 01:45:19 05:16 11.39
33 479 HAVRENNE JONATHAN SH 25 01:45:25 05:16 11.38
34 453 GILLARD MICHAËL V1 4 01:45:48 05:17 11.34
35 714 INGBER HAROLD SH 26 01:45:52 05:18 11.33
36 673 JACOBY KEVIN SH 27 01:46:09 05:18 11.30
37 265 VIS STEPHAN V2 6 01:46:44 05:20 11.24
38 915 LOUIS WILLIAM SH 28 01:46:59 05:21 11.22
39 1054 EVRARD JEAN-FRANCOIS V1 5 01:47:12 05:22 11.19
40 1156 ADANS-DESTER GILLES SH 29 01:48:20 05:25 11.08
41 1157 PETIT PIERRE FLORENT SD 1 01:48:22 05:25 11.07
42 1052 DEWAEL YANNICK V1 6 01:48:28 05:25 11.06
43 820 JACQMAIN RUDY V1 7 01:48:42 05:26 11.04
44 311 DUSSELDORF STÉPHANE SH 30 01:48:50 05:27 11.03
45 310 PERSICO JORI SH 31 01:49:02 05:27 11.01
46 674 JODOGNE LUCAS SH 32 01:50:22 05:31 10.87
47 979 CROES GÉRALD SH 33 01:50:26 05:31 10.87
48 228 KAISER SIMON SH 34 01:50:34 05:32 10.85
49 769 SPARKS JOHN-SIMON SH 35 01:51:03 05:33 10.81
50 644 BRISBOIS JÉRÉMY SH 36 01:51:23 05:34 10.77
51 707 MAGONET ROBIN SH 37 01:51:27 05:34 10.77
52 183 DELVAUX JEAN FRANÇOIS SH 38 01:51:33 05:35 10.76
53 340 ROBIN MICHAEL V1 8 01:52:11 05:37 10.70
54 1142 VAN WOENSEL THEODORE SH 39 01:52:26 05:37 10.67
55 732 DEWAELLE ALEXIS SH 40 01:52:45 05:38 10.64
56 699 MATTHYS TOM SH 41 01:52:57 05:39 10.62
57 552 COLON JONATHAN SH 42 01:53:24 05:40 10.58
58 1136 BEAUGNÉE SÉBASTIEN V1 9 01:54:03 05:42 10.52
59 96 DUMONT GREGOIRE SH 43 01:54:04 05:42 10.52
60 182 BARON NICOLAS SH 44 01:54:08 05:42 10.51
61 585 SEVRIN LIONEL SH 45 01:54:56 05:45 10.44
62 919 VAN HOECKE CHRISTOPHER SH 46 01:55:15 05:46 10.41
63 335 FRANÇOIS JÉROME SH 47 01:55:16 05:46 10.41
64 920 SCORY GUILLAUME SH 48 01:55:17 05:46 10.41
65 352 DEFRANCE SÉBASTIEN V1 10 01:55:22 05:46 10.40
66 1056 ZANIER LAURENT V1 11 01:55:27 05:46 10.39
67 77 FREVILLE GEOFFREY SH 49 01:55:27 05:46 10.39
68 869 VAN DEN KERCKHOVE OLIVIER V1 12 01:55:33 05:47 10.38
69 756 GRAUMANN FREDERIC V1 13 01:56:27 05:49 10.30
70 904 BASTIEN GAUTIER SH 50 01:56:59 05:51 10.26
71 24 FISCHER RAPHAEL SH 51 01:57:01 05:51 10.25
72 857 DUBUISSON YVES V1 14 01:57:02 05:51 10.25
73 871 NORMAND JOACHIM SH 52 01:57:11 05:52 10.24
74 870 LAFFINEUR YANNICK SH 53 01:57:13 05:52 10.24
75 645 PINCHART MICHAEL V1 15 01:57:19 05:52 10.23
76 74 DOYEN VINCENT V1 16 01:57:22 05:52 10.22
77 903 MARTIN LOUIS SH 54 01:58:00 05:54 10.17
78 886 THIRY MAXIME SH 55 01:58:07 05:54 10.16
79 669 GEORGES DAVID SH 56 01:58:08 05:54 10.16
80 491 COGNIAUX LAURENT V1 17 01:58:41 05:56 10.11
81 696 GEERINCKX THIBAUD SH 57 01:58:46 05:56 10.10
82 26 WAUTERS VINCIANE SH 58 01:59:40 05:59 10.03
83 799 MATHIEU LAURENT V1 18 01:59:54 06:00 10.01
84 292 ADAM XAVIER SH 59 02:00:29 06:01 9.96
85 1100 FRANCQ BENJAMIN V1 19 02:00:30 06:02 9.96
86 451 HUYSMANS JOCHEN V1 20 02:00:30 06:02 9.96
87 785 GLIBERT STÉPHANE SH 60 02:00:33 06:02 9.95
88 1018 BUYS BENJAMIN SH 61 02:00:41 06:02 9.94
89 452 GERRY JANSSENS V1 21 02:00:41 06:02 9.94
90 754 COUVREUR CHARLES SH 62 02:00:56 06:03 9.92
91 833 SILIEN BENJAMIN SH 63 02:01:05 06:03 9.91
92 1103 BERTRAND THOMAS BIS V1 22 02:01:10 06:04 9.90
93 828 LECHARLIER JONATHAN SH 64 02:01:13 06:04 9.90
94 832 DUBOIS STÉPHANE V2 7 02:01:13 06:04 9.90
95 357 JAUMOTTE FABIEN SH 65 02:01:21 06:04 9.89
96 222 WAVREILLE DIMITRI V1 23 02:01:21 06:04 9.89
97 576 DUPONT ROMAIN SH 66 02:01:22 06:04 9.89
98 341 CLERCKX KRIS V1 24 02:01:30 06:05 9.88
99 640 BRIX NICOLAS SH 67 02:01:41 06:05 9.86
100 845 COLOMBO SERGIO V3 1 02:02:01 06:06 9.83
101 424 GATHY RAPHAËL SH 68 02:02:04 06:06 9.83
102 367 VAN HERCK KRISTOF SH 69 02:02:18 06:07 9.81
103 64 POLLART JEAN-FRANÇOIS V2 8 02:02:20 06:07 9.81
104 725 COOREVITS BERT V1 25 02:02:22 06:07 9.81
105 545 CHAINIAUX VIRGINIE SD 2 02:02:25 06:07 9.80
106 547 LEMAIRE NICOLAS V1 26 02:02:27 06:07 9.80
107 802 CHARLIER ARTHUR SH 70 02:02:28 06:07 9.80
108 804 BIHAIN LUCAS SH 71 02:02:35 06:08 9.79
109 805 LAMBERT JULIEN SH 72 02:02:55 06:09 9.76
110 394 MAES THIERRY V2 9 02:03:23 06:10 9.73
111 801 LAMBERT RÉMI SH 73 02:03:24 06:10 9.72
112 676 DUBOIS PHILIPPE V2 10 02:03:33 06:11 9.71
113 803 VINCENZO MARTINEZ SH 74 02:03:35 06:11 9.71
114 952 ABSIL FABRICE V1 27 02:03:39 06:11 9.70
115 187 PONDEVILLE NATHALIE A1 1 02:03:41 06:11 9.70
116 862 STACHE DIMITRI V1 28 02:03:47 06:11 9.69
117 861 GUERRERO DIEGO V2 11 02:03:49 06:11 9.69
118 325 PALOCNA JANA SD 3 02:03:51 06:12 9.69
119 514 BOUCQUEAU RUDY V1 29 02:03:52 06:12 9.69
120 948 VANVLASSELAER YVES V2 12 02:04:15 06:13 9.66
121 822 KNOOPS OSCAR SH 75 02:04:26 06:13 9.64
122 823 RENIÉ BAUDOUIN SH 76 02:04:27 06:13 9.64
123 695 LEVEAU BAPTISTE SH 77 02:04:38 06:14 9.63
124 397 GENGLER RÉMI SH 78 02:04:40 06:14 9.63
125 554 GAILLET OLIVIER SH 79 02:05:00 06:15 9.60
126 267 KRUG EMMANUELLE A2 1 02:05:04 06:15 9.59
127 445 HERMAND VANESSA A1 2 02:05:10 06:16 9.59
128 937 TERRASSE BERNARD V2 13 02:05:54 06:18 9.53
129 368 LECROART ELODIE SD 4 02:05:57 06:18 9.53
130 331 JANSMA SIEMEN SH 80 02:05:57 06:18 9.53
131 536 NUTAL VALENTIN SH 81 02:05:59 06:18 9.52
132 468 ROSMAN JEAN-YVES SH 82 02:06:02 06:18 9.52
133 475 ORBAN PIERRE SH 83 02:06:06 06:18 9.52
134 839 CAMPS NATHANIEL SH 84 02:06:11 06:19 9.51
135 164 PIERARD MATHIEU SH 85 02:06:11 06:19 9.51
136 993 DEBAISE PASCAL V2 14 02:06:27 06:19 9.49
137 992 HENNEQUENNE ROMAIN SH 86 02:06:28 06:19 9.49
138 840 DENIS CLÉMENT SH 87 02:06:45 06:20 9.47
139 1015 PIOTROWSKI DIDIER V2 15 02:06:46 06:20 9.47
140 223 WAVREILLE BERTRAND V1 30 02:06:47 06:20 9.46
141 838 BONJEAN ANTOINE SH 88 02:06:48 06:20 9.46
142 119 CREMER GILLES SH 89 02:07:00 06:21 9.45
143 120 HOFF GRÉGORY SH 90 02:07:05 06:21 9.44
144 872 ROVELLI SAMUEL SH 91 02:07:06 06:21 9.44
145 440 NICOLAS MARIE-VIRGINIE A1 3 02:07:10 06:22 9.44
146 131 MERCENIER DIDIER V2 16 02:07:16 06:22 9.43
147 455 GAUTHIER NICOLAS SH 92 02:07:16 06:22 9.43
148 439 LEKEU VALÉRY V1 31 02:07:18 06:22 9.43
149 456 VANHULST BENJAMIN SH 93 02:07:18 06:22 9.43
150 425 MONCOUSIN FABIEN V1 32 02:07:18 06:22 9.43
151 133 SURIN ISABELLE A1 4 02:07:20 06:22 9.42
152 134 FALQUE JOHN V1 33 02:07:22 06:22 9.42
153 136 BOECKMANS DAMIEN SH 94 02:07:34 06:23 9.41
154 855 WEYKMANS SÉBASTIEN V1 34 02:08:07 06:24 9.37
155 1089 SMITS DAVID V1 35 02:08:31 06:26 9.34
156 944 DEROO MATS SH 95 02:08:31 06:26 9.34
157 363 MILLET PIERRE-YVES V1 36 02:08:58 06:27 9.30
158 362 BRASSEUR MARIE A1 5 02:09:03 06:27 9.30
159 476 PIETTE SIMON SH 96 02:09:18 06:28 9.28
160 917 LOOMANS ITSKE A1 6 02:09:41 06:29 9.25
161 159 FALISE BRUNO V1 37 02:09:45 06:29 9.25
162 775 RONGVAUX BERNARD V3 2 02:09:45 06:29 9.25
163 160 VANDERGHEYNST PATRICK V2 17 02:09:45 06:29 9.25
164 477 LECOMTE THIBAUT SH 97 02:10:05 06:30 9.22
165 10 MONAUX CLEMENT SH 98 02:10:43 06:32 9.18
166 101 PASTUER SAM V1 38 02:10:46 06:32 9.18
167 11 MATHEVE ADRIEN SH 99 02:10:57 06:33 9.16
168 102 VERAGHTERT WOUTER SH 100 02:10:58 06:33 9.16
169 103 SANNEN LANDER SH 101 02:10:58 06:33 9.16
170 442 MARCHAL JASON SH 102 02:10:58 06:33 9.16
171 216 HAQUENNE DAMIEN SH 103 02:11:07 06:33 9.15
172 215 TORMEN ALARIC SH 104 02:11:08 06:33 9.15
173 278 RAYMAEKERS LUC V2 18 02:11:23 06:34 9.13
174 443 DAMBROISE KRISTEL SD 5 02:11:28 06:34 9.13
175 1112 ISLAMGAZIN ILDAR SH 105 02:11:42 06:35 9.11
176 1070 FRANÇOIS LÉANDRE SH 106 02:11:45 06:35 9.11
177 438 MONTI PIERRE V1 39 02:12:13 06:37 9.08
178 667 SOSSON MARTIN SH 107 02:12:15 06:37 9.07
179 898 CORNET ROBIN SH 108 02:12:17 06:37 9.07
180 163 LAMBEAU THOMAS SH 109 02:12:19 06:37 9.07
181 747 TOURNEUR AXEL SH 110 02:12:22 06:37 9.07
182 877 RENARD DELPHINE SD 6 02:12:31 06:38 9.05
183 777 YERNAUX CHRISTOPHE V1 40 02:12:38 06:38 9.05
184 181 LAFOSSE JONATHAN SH 111 02:12:38 06:38 9.05
185 180 FERRI ROMAIN SH 112 02:12:39 06:38 9.05
186 184 DEPRÉ DANIEL V2 19 02:13:05 06:39 9.02
187 794 ADAM BENJAMIN V1 41 02:13:20 06:40 9.00
188 364 MILLET SOPHIE A1 7 02:13:25 06:40 8.99
189 537 BOURGUIGNON NICOLAS SH 113 02:13:47 06:41 8.97
190 538 NOËL CYRIL SH 114 02:13:48 06:41 8.97
191 1059 VAN LATHEM SAMUEL SH 115 02:13:48 06:41 8.97
192 1057 VERSTUYFT SARA SD 7 02:13:50 06:42 8.97
193 899 ALLEMAND RAPHAEL SH 116 02:13:54 06:42 8.96
194 793 FRANCQ GEOFFROY V1 42 02:13:57 06:42 8.96
195 996 GOETHALS DIANE A1 8 02:14:04 06:42 8.95
196 916 ROCOUR BERTRAND SH 117 02:14:09 06:42 8.94
197 895 BADOUX ALEXANDRE SH 118 02:14:14 06:43 8.94
198 565 WILMART OLIVIER SH 119 02:14:20 06:43 8.93
199 817 HARDENNE22 JOEL V2 20 02:15:16 06:46 8.87
200 1106 WILMOTTE DAMIEN SH 120 02:16:12 06:49 8.81
201 149 BERTRAND THOMAS V1 43 02:16:13 06:49 8.81
202 859 WERRION LUDOVIC SH 121 02:16:21 06:49 8.80
203 1147 FRERE SEBASTIEN SH 122 02:16:27 06:49 8.79
204 1148 BURNAY JULIE SD 8 02:16:49 06:50 8.77
205 541 ANTOINE CÉDRIC SH 123 02:16:58 06:51 8.76
206 1098 COUTTEAU ENRICO V1 44 02:17:03 06:51 8.76
207 710 LAMBERT CATHERINE A1 9 02:17:08 06:51 8.75
208 463 PLENNEVAUX AMELIE SD 9 02:17:44 06:53 8.71
209 1005 MEDAETS MARINE SD 10 02:18:09 06:54 8.69
210 492 MOREAU AURÉLIEN SH 124 02:18:32 06:56 8.66
211 880 GODART PIERRE SH 125 02:19:11 06:58 8.62
212 665 JEANFILS STÉPHAN V2 21 02:19:12 06:58 8.62
213 902 MEUWIS FRÉDÉRIC V1 45 02:19:36 06:59 8.60
214 879 GODART LAURENT SH 126 02:19:38 06:59 8.59
215 189 ZARULLI CHRIS SH 127 02:19:57 07:00 8.57
216 1093 BURON MARIE A1 10 02:20:05 07:00 8.57
217 858 DECHEVRE SEBASTIEN SH 128 02:20:16 07:01 8.55
218 692 MAQUET PHILIPPE V1 46 02:20:16 07:01 8.55
219 427 WANSARD MARIE SD 11 02:20:22 07:01 8.55
220 1133 LATOUR PIERRE SH 129 02:20:23 07:01 8.55
221 472 NAVAUX PIERRE SH 130 02:20:32 07:02 8.54
222 470 FANUEL MARTIN SH 131 02:20:40 07:02 8.53
223 1088 UHLANOV YURII SH 132 02:20:59 07:03 8.51
224 416 LOISE PIERRE-LOUIS SH 133 02:21:19 07:04 8.49
225 1101 LELEU GAETANE SD 12 02:21:57 07:06 8.45
226 234 WILLEMS LIEVEN V2 22 02:22:02 07:06 8.45
227 1102 DAMAR ANNE-CÉCILE A1 11 02:22:19 07:07 8.43
228 121 LORAND JEAN-FRANCOIS V1 47 02:22:38 07:08 8.41
229 1053 LAMBOTTE FABRICE V2 23 02:22:44 07:08 8.41
230 1107 CAXTON SÉBASTIEN V1 48 02:22:48 07:08 8.40
231 1110 STREVELER DAVID SH 134 02:23:06 07:09 8.39
232 1143 VAN WOENSEL GERALD V1 49 02:23:19 07:10 8.37
233 752 SANTAROSSA SILVIO V1 50 02:23:20 07:10 8.37
234 1091 POPULAIRE THIERRY V2 24 02:23:36 07:11 8.36
235 400 DERRE SYLVIE A1 12 02:23:38 07:11 8.35
236 70 BLONDEEL DIRK V1 51 02:23:41 07:11 8.35
237 868 ROMPEN THIBAUT V1 52 02:23:47 07:11 8.35
238 289 GRUIELLE YANNICK V2 25 02:23:57 07:12 8.34
239 286 GRIMM ELISE SH 135 02:23:58 07:12 8.33
240 679 MINGUET PIERRE SH 136 02:24:05 07:12 8.33
241 433 PIERARD VALÉRIE A1 13 02:24:11 07:13 8.32
242 361 ZORBAS ALEXIS V1 53 02:24:13 07:13 8.32
243 360 DUBOIS VINCENT V2 26 02:24:13 07:13 8.32
244 434 LEENDERS VERO A2 2 02:24:15 07:13 8.32
245 1063 VERHAEGEN COLIN SH 137 02:24:15 07:13 8.32
246 1092 DEPOORTER FRED V1 54 02:24:32 07:14 8.30
247 680 NYOKA AMAURY SH 138 02:24:48 07:14 8.29
248 179 WIELANDTS LOUISE SD 13 02:25:00 07:15 8.28
249 620 FRANCQ FABIAN V1 55 02:25:05 07:15 8.27
250 1058 BONTE STEFAAN SH 139 02:25:08 07:15 8.27
251 339 SANDRINE EELBO A1 14 02:25:09 07:15 8.27
252 653 DE THIER TANGUY V2 27 02:25:11 07:16 8.26
253 844 THEUNISSEN MÉLANIE SD 14 02:25:19 07:16 8.26
254 1061 SOKER GOKCE V1 56 02:25:25 07:16 8.25
255 41 CLEMENT JEROME SH 140 02:25:33 07:17 8.24
256 751 LAURENT JULIEN V1 57 02:25:34 07:17 8.24
257 40 CLEMENT SERGE V3 3 02:25:39 07:17 8.24
258 663 HOLOFFE DIDIER V2 28 02:25:41 07:17 8.24
259 878 DELAPLACE PIERRE V1 58 02:25:53 07:18 8.23
260 865 DEMOULIN BRIGITTE A3 1 02:25:55 07:18 8.22
261 584 VAN ESPEN GAEL SH 141 02:26:01 07:18 8.22
262 619 DELBEKE CATHERINE SD 15 02:26:04 07:18 8.21
263 177 VORIMORE MARIE SD 16 02:26:05 07:18 8.21
264 542 ARGENTO FRANÇOIS V2 29 02:26:19 07:19 8.20
265 543 LEONI MURIEL A1 15 02:26:19 07:19 8.20
266 617 MEURANT VIRGINIE A1 16 02:26:33 07:20 8.19
267 618 LOBET SEBASTIEN SH 142 02:26:33 07:20 8.19
268 432 DERYCK NANCY SD 17 02:27:02 07:21 8.16
269 730 DEWAELLE MICHEL V2 30 02:27:03 07:21 8.16
270 444 LABENNE SOPHIE A1 17 02:27:05 07:21 8.16
271 814 SEGERS PIERRE V2 31 02:27:16 07:22 8.15
272 949 BOUVIER BENOIT V1 59 02:27:31 07:23 8.13
273 126 DE FAYS CHRISTIAN V2 32 02:28:03 07:24 8.10
274 436 PIERRE KATHY A1 18 02:28:21 07:25 8.09
275 435 GERARD DELPHINE A1 19 02:28:21 07:25 8.09
276 178 REMI WIELANDTS SH 143 02:28:57 07:27 8.06
277 1095 SIMON STEPHAN V1 60 02:29:06 07:27 8.05
278 233 SCHACHT ANN A2 3 02:29:27 07:28 8.03
279 1158 CORBISIER TIPHAINE SD 18 02:29:32 07:29 8.02
280 762 LEHANNE ERIC V1 61 02:30:17 07:31 7.98
281 942 PIRSON GUILLAUME SH 144 02:30:56 07:33 7.95
282 941 PIRSON BERTRAND SH 145 02:30:59 07:33 7.95
283 849 LEGRAND JEAN-FRANCOIS V1 62 02:31:07 07:33 7.94
284 6 HEUSLING FLORENCE SD 19 02:31:13 07:34 7.94
285 44 LAMOTTE CHRISTOPHE SH 146 02:31:18 07:34 7.93
286 705 VIGNERON SABINE A2 4 02:31:19 07:34 7.93
287 704 DESRUE JOSEPH V2 33 02:31:20 07:34 7.93
288 287 SYDOR GUY V2 34 02:31:37 07:35 7.91
289 43 MAQUET LUC V1 63 02:31:45 07:35 7.91
290 411 OLIVIER LOIC SH 147 02:32:59 07:39 7.84
291 977 EVENEPOEL BART V1 64 02:33:05 07:39 7.84
292 1033 VAN GELDER BART V1 65 02:33:12 07:40 7.83
293 1000 SOMERS TOMMY V1 66 02:33:15 07:40 7.83
294 976 BILLENS DAISY SD 20 02:33:16 07:40 7.83
295 107 GALDEROUX JULIEN SH 148 02:33:22 07:40 7.82
296 106 SCIUS PAULINE SD 21 02:33:23 07:40 7.82
297 999 WALCKIERS BART V1 67 02:34:00 07:42 7.79
298 625 MERTENS ALEX V1 68 02:34:11 07:43 7.78
299 67 CELLIÈRE O V2 35 02:34:12 07:43 7.78
300 1071 MOLLET PIERRE-YVES SH 149 02:34:21 07:43 7.77
301 850 PEETERS FRED V1 69 02:34:52 07:45 7.75
302 624 VERMASSEN WIM SH 150 02:35:13 07:46 7.73
303 568 VANSTAPEL CAROLINE SD 22 02:35:28 07:46 7.72
304 204 TEIRLINCK HERVÉ V1 70 02:35:50 07:48 7.70
305 202 GAUDY NOEL V2 36 02:35:50 07:48 7.70
306 203 SOTTIAUX KAROLIEN SD 23 02:35:57 07:48 7.69
307 285 COLARD RAPHAËL V1 71 02:36:00 07:48 7.69
308 176 MATHOT BENOIT V2 37 02:36:12 07:49 7.68
309 685 HENKINET BERNARD V1 72 02:36:26 07:49 7.67
310 684 ROBAYE SOPHIE A1 20 02:36:27 07:49 7.67
311 683 ROBAYE SOPHIE A1 21 02:36:29 07:49 7.67
312 983 KEYSER CHRISTIAN V3 4 02:36:57 07:51 7.65
313 505 VANSTEENKISTE TIM SH 151 02:37:03 07:51 7.64
314 504 THIEBAUD MARVIN SH 152 02:37:03 07:51 7.64
315 290 BARRY HELENE V2 38 02:37:05 07:51 7.64
316 283 HELLEPUTTE BÉNÉDICTE A2 5 02:37:07 07:51 7.64
317 42 LAMOTTE DENIS SH 153 02:37:33 07:53 7.62
318 662 GHERAILLE JEAN-MARC V2 39 02:38:04 07:54 7.59
319 681 VERWIMP STEVE SH 154 02:38:27 07:55 7.57
320 446 D'AUTRES BENJAMIN V1 73 02:38:31 07:56 7.57
321 939 SCHELLEKENS TOM V1 74 02:38:33 07:56 7.57
322 938 VAN GORP ANNELIES SD 24 02:38:36 07:56 7.57
323 1155 VAN MASSENHOVE SOPHIE SD 25 02:38:57 07:57 7.55
324 1154 LEURQUIN FRÉDÉRIC V1 75 02:38:57 07:57 7.55
325 734 NINANE ANNE-FRAN A1 22 02:38:58 07:57 7.55
326 83 KUYSTERMANS TIJL V1 76 02:38:59 07:57 7.55
327 731 DEWAELLE MATTHIEU SH 155 02:39:03 07:57 7.54
328 726 FOLENS KATRIEN SD 26 02:39:06 07:57 7.54
329 304 FLOYMONT OLIVIER V2 40 02:39:14 07:58 7.54
330 305 NEUS OLIVIER V1 77 02:39:14 07:58 7.54
331 735 MICHEL AP A1 23 02:39:28 07:58 7.52
332 90 SEMET JEAN-PAUL V2 41 02:39:44 07:59 7.51
333 550 SCORIELS NATHALIE A1 24 02:40:26 08:01 7.48
334 471 BOLLE MARTIAL SH 156 02:40:26 08:01 7.48
335 306 DUCHENE PIERRE-YVES V2 42 02:40:29 08:01 7.48
336 257 VANDERMOTTEN LAURENT V1 78 02:40:38 08:02 7.47
337 95 MICHEL OLIVIER V1 79 02:40:46 08:02 7.46
338 261 VAN VELTHEM RAPHAËL SH 157 02:40:50 08:03 7.46
339 1076 MINET OPHELIE SD 27 02:40:53 08:03 7.46
340 256 MAERTEN EMILIE SD 28 02:41:13 08:04 7.44
341 574 THONON JACKY V1 80 02:41:15 08:04 7.44
342 359 DECLERCK VINCENT V2 43 02:41:35 08:05 7.43
343 238 SCHOEPP ANNE-MICHELE SD 29 02:42:14 08:07 7.40
344 239 MIEROO PHILIPPE V2 44 02:42:17 08:07 7.39
345 1036 ROCCARO GIUSEPPE V2 45 02:42:41 08:08 7.38
346 1035 CAMBIER ANNE-SOPHIE SD 30 02:42:43 08:08 7.37
347 933 ATIENZA MARTINEZ LUDOVIC SH 158 02:43:09 08:09 7.35
348 967 RÉMY EDOUARD SH 159 02:43:13 08:10 7.35
349 978 COTE MYRIAM SD 31 02:43:27 08:10 7.34
350 66 LECLERCQ PATRICK V2 46 02:43:47 08:11 7.33
351 63 SIMONART VÉRONIQUE A2 6 02:44:02 08:12 7.32
352 62 VANDECANDELAERE SOPHIE A1 25 02:44:04 08:12 7.31
353 65 WOLFF LAURENCE A2 7 02:44:09 08:12 7.31
354 59 GILOT CHRISTINE A1 26 02:44:14 08:13 7.31
355 1019 AMOND VALENTINE SH 160 02:44:21 08:13 7.30
356 1002 AMOND YSALINE SD 32 02:44:23 08:13 7.30
357 1001 LIEGEOIS NATHALIE A2 8 02:44:27 08:13 7.30
358 60 STEENO AURÉLIE A1 27 02:44:29 08:13 7.30
359 61 MATTHIAS NOEL SH 161 02:44:30 08:14 7.29
360 650 HUBLET ADÈLE SD 33 02:44:51 08:15 7.28
361 860 BARUFFI RENAUD SH 162 02:44:53 08:15 7.28
362 661 WILEM SARAH SD 34 02:44:59 08:15 7.27
363 776 BINAMÉ ALEXANDRE SH 163 02:45:16 08:16 7.26
364 58 BERTRAND YVES V2 47 02:45:39 08:17 7.24
365 54 WINAND SOPHIE A1 28 02:45:39 08:17 7.24
366 995 DUBOIS MARIE A2 9 02:45:47 08:17 7.24
367 994 MEYS CÉCILE A1 29 02:45:47 08:17 7.24
368 1153 COLLE EMILIE SD 35 02:45:58 08:18 7.23
369 57 ALBERT MICHEL V3 5 02:46:01 08:18 7.23
370 729 BOURGUIGNON CHRISTOPHE V1 81 02:46:33 08:20 7.20
371 56 CHARLES PATRICIA A2 10 02:46:38 08:20 7.20
372 55 ROSSILLON AUDREY A1 30 02:47:11 08:22 7.18
373 108 HENRY STÉPHANE V3 6 02:47:12 08:22 7.18
374 816 BISTON LAURA SD 36 02:47:37 08:23 7.16
375 815 BYLOOS VALÉRIE A1 31 02:47:42 08:23 7.16
376 712 DE KLERCK OLIVIER V1 82 02:47:47 08:23 7.15
377 709 THOUMSIN GILLES V1 83 02:47:47 08:23 7.15
378 773 PLENNEVAUX MURIEL A1 32 02:49:21 08:28 7.09
379 413 STAQUET LAURENT V1 84 02:49:33 08:29 7.08
380 774 JUSSERET JEAN-POL V3 7 02:49:56 08:30 7.06
381 260 MEDAETS ALIZÉE SD 37 02:50:00 08:30 7.06
382 76 LECLERCQ LOUIS SH 164 02:50:35 08:32 7.03
383 78 FRANÇOIS CHRISTOPHE V1 85 02:50:39 08:32 7.03
384 9 PELLEGRINELLI NICOLAS SH 165 02:51:09 08:33 7.01
385 19 RULENS NANCY A1 33 02:51:11 08:34 7.01
386 1016 VINCK JORIS SH 166 02:52:47 08:38 6.94
387 28 BERTRAND MARINE SD 38 02:54:08 08:42 6.89
388 30 DELFORGE TIFFANY SD 39 02:54:18 08:43 6.88
389 1010 GROSSEN CHLOE SD 40 02:54:30 08:44 6.88
390 598 LUYCKX PIER V2 48 02:55:34 08:47 6.83
391 1034 CHANET DAVE V1 86 02:57:40 08:53 6.75
392 1011 LALIEU YVES V2 49 02:59:05 08:57 6.70
393 1131 GOUAT AUDREY SD 41 02:59:43 08:59 6.68
394 1132 LESSUISE LAURENT SH 167 03:00:09 09:00 6.66
395 786 MARCIANO FLORIAN SH 168 03:02:23 09:07 6.58
396 934 LAARISSI MOUNIR SH 169 03:02:38 09:08 6.57
397 1062 VERHAEGHEN STEVEN V1 87 03:04:39 09:14 6.50
398 39 CLAESSEN EDOUARD V1 88 03:05:42 09:17 6.46
399 1047 ADAMS SABINE A1 34 03:06:47 09:20 6.42
400 1046 VANBELLINGHEN CÉCILE A1 35 03:06:50 09:21 6.42
401 943 BRASSEUR VALÉRIE A2 11 03:07:30 09:23 6.40
402 965 HONORE DAVID V2 50 03:07:32 09:23 6.40
403 1037 DOMINIQUE VREBOS A2 12 03:08:58 09:27 6.35
404 46 MARTIN JULIE SD 42 03:09:52 09:30 6.32
405 91 MICHEL PIERRE V2 51 03:13:54 09:42 6.19
406 92 LAURENT EMMANUELLE A1 36 03:14:04 09:42 6.18
407 604 WERNER MARIE-CHRISTINE A1 37 03:18:05 09:54 6.06
408 605 DELATTE CARINE A2 13 03:18:07 09:54 6.06
409 268 LUYCKX PIERRE V2 52 03:19:17 09:58 6.02
410 313 FANUEL PAULETTE A3 2 03:24:00 10:12 5.88
411 1039 SECRET LAURENCE A2 14 03:25:01 10:15 5.85
412 1038 GONZALEZ SILVIA A1 38 03:25:02 10:15 5.85
413 1026 HELYN CYRIL SH 170 03:25:03 10:15 5.85
414 1028 VANDENBORRE SÉBASTIEN SH 171 03:25:06 10:15 5.85
415 1109 CARDON BENJAMIN V2 53 03:27:46 10:23 5.78
416 922 DELHAYE FABIENNE A2 15 03:29:56 10:30 5.72
417 984 FRIPPIAT ALIX A3 3 03:29:59 10:30 5.71
418 1027 VANHAELEN CÉDRIC V1 89 03:33:43 10:41 5.61
419 789 SCHATTEMAN AURORE SD 43 03:42:32 11:08 5.39
420 1032 DIERICKX CHRISTOPHE V1 90 03:43:18 11:10 5.37
421 1023 DEBJANI BILAL SH 172 03:43:31 11:11 5.37
422 566 HAMDAOUI ANDREH V2 54 03:46:46 11:20 5.29
423 587 BERCKMANS MARIE-CATHERINE SD 44 03:46:46 11:20 5.29
424 1073 BOCK PHILIPPE V1 91 03:51:57 11:36 5.17
425 1072 BODELET MARYSE A1 39 03:52:00 11:36 5.17
426 1030 DESRUELLES OLIVIER V2 55 04:04:27 12:13 4.91
427 1029 DESRUELLES EMILIE SD 45 04:04:28 12:13 4.91
428 385 JACQUES LAETICIA A1 40 04:14:46 12:44 4.71
429 740 BOCK ANNE-SOPHIE A1 41 04:33:36 13:41 4.39
430 737 BREVIERE ANGÉLIQUE A1 42 04:33:37 13:41 4.39
431 738 GRANDJEAN ANGÉLIQUE SD 46 04:34:00 13:42 4.38